Location: Unspecified
(0.0000°N, 0.0000°E)
Time: 16:23:52
(UTC+00:00)

Vanguard 2 Rocket - Pass Details

Date: 25 November 2019
Orbit: 554 x 3326 km, 32.9° (Epoch: 13 December)

Event Time Altitude Azimuth Distance (km) Brightness Sun altitude
Rises 05:36:22 0° 321° (NW) 3,756 9.5 -2.4°
Reaches altitude 10° 05:38:39 10° 327° (NNW) 3,064 9.1 -1.9°
Maximum altitude 05:46:12 48° 41° (NE) 2,095 9.0 -0.1°
Drops below altitude 10° 05:59:24 10° 110° (ESE) 5,235 13.5 2.9°
Sets 06:04:37 0° 115° (ESE) 6,641 14.3 4.2°
